Тюп

Киргизия     42˚43′32″N   78˚21′49″E
темп.,
°C
ветер,
м/с
пор.,
м/с
влажн.,
%
обл.,
%
осадки,
мм/ч
давл.,
гПа
погр.,
м
6 декабря, вс
вс600:00−9˚с336310 0.0 103148
03:00−9˚ссв226035 0.0 103139
06:00−10˚ссв226317 0.0 103235
09:00−9˚с126428 0.0 103235
12:00−5˚юв017363 0.0 103085
15:00−5˚всв1177100 0.0 102969
18:00−8˚ссв1272100 0.0 103135
21:00−9˚с226875 0.0 103130
7 декабря, пн
пн700:00−9˚с226546 0.0 103031
03:00−9˚с226645 0.0 102942
06:00−9˚с126573 0.0 102746
09:00−9˚с1266100 0.0 102635
12:00−5˚ссв0172100 0.0 102290
15:00−4˚юз1280100 0.0 1021144
18:00−7˚с2278100 0.1 102454
21:00−7˚ссв227999 0.1 102741
8 декабря, вт
вт800:00−8˚ссв227787 0.1 102740
03:00−8˚ссв227466 0.0 102941
06:00−9˚ссв227476 0.0 102842
09:00−9˚ссв227679 0.0 102939
12:00−5˚в127973 0.1 1027132
15:00−5˚всв238442 0.1 1026112
18:00−8˚ссв338161 0.3 102993
21:00−9˚ссв338998 0.2 103198
9 декабря, ср
ср900:00−9˚ссв349099 0.6 1033110
03:00−9˚ссв3385100 0.3 1035112
06:00−9˚ссв2385100 0.6 103677
09:00−9˚св129097 0.3 103858
12:00−6˚всв118679 0.4 1035165
15:00−6˚вюв119042 0.0 103373
18:00−10˚с227931 0.0 103539
21:00−11˚с22740 0.0 103431
10 декабря, чт
чт1000:00−11˚с22750 0.0 103329
03:00−11˚с22760 0.0 103231
06:00−12˚с22752 0.0 103132
09:00−11˚с22710 0.0 103236
12:00−7˚ссв11803 0.0 1030100
15:00−7˚ссв11850 0.0 102969
18:00−10˚с22788 0.0 103333
21:00−10˚с22750 0.0 103532